This is the latest recevied weather packets stored in our database for station/object DO7ZT-10. If no packets are shown the sender has not sent any weather packets the latest 10 day(s).
| Time | Temp. | Humidity | Pressure | Rain* | Wind** | Luminosity | Snow |
|---|---|---|---|---|---|---|---|
| 1777465147 | 14.44° C | 25% | 1028.1 hPa | - | - | - | - |
| 1777464246 | 13.89° C | 25% | 1028.1 hPa | - | - | - | - |
| 1777463346 | 13.89° C | 26% | 1028.1 hPa | - | - | - | - |
| 1777462446 | 12.78° C | 23% | 1028 hPa | - | - | - | - |
| 1777461546 | 13.33° C | 25% | 1028.1 hPa | - | - | - | - |
| 1777460646 | 12.78° C | 25% | 1028.1 hPa | - | - | - | - |
| 1777459746 | 12.78° C | 24% | 1028.1 hPa | - | - | - | - |
| 1777458845 | 12.78° C | 24% | 1028.2 hPa | - | - | - | - |
| 1777457945 | 13.33° C | 23% | 1028.1 hPa | - | - | - | - |
| 1777457045 | 13.33° C | 24% | 1028.3 hPa | - | - | - | - |
| 1777456145 | 12.22° C | 25% | 1028.4 hPa | - | - | - | - |
| 1777455245 | 12.78° C | 26% | 1028.4 hPa | - | - | - | - |
| 1777454345 | 11.67° C | 26% | 1028.3 hPa | - | - | - | - |
| 1777453444 | 11.11° C | 29% | 1028.5 hPa | - | - | - | - |
| 1777452544 | 11.11° C | 28% | 1028.5 hPa | - | - | - | - |
| 1777451644 | 10.56° C | 29% | 1028.6 hPa | - | - | - | - |
| 1777450744 | 10.56° C | 29% | 1028.4 hPa | - | - | - | - |
| 1777449844 | 9.44° C | 32% | 1028.4 hPa | - | - | - | - |
| 1777448944 | 8.89° C | 33% | 1028.4 hPa | - | - | - | - |
| 1777448044 | 7.78° C | 37% | 1028.3 hPa | - | - | - | - |
| 1777447144 | 7.22° C | 38% | 1028.3 hPa | - | - | - | - |
| 1777446244 | 7.22° C | 43% | 1028 hPa | - | - | - | - |
| 1777445344 | 6.67° C | 43% | 1028 hPa | - | - | - | - |
| 1777444444 | 6.11° C | 45% | 1027.7 hPa | - | - | - | - |
| 1777443544 | 5.56° C | 46% | 1027.5 hPa | - | - | - | - |
* Rain since midnight (hover to see other rain measurements)
** Current wind speed in m/s (hover to see current wind gust speed)